Location: Briis
(48.6240°N, 2.1211°E)
Time: 05:40:48
(UTC+00:00)

Cosmos 1862 Rocket - Pass Details

Date: 25 September 2020
Orbit: 603 x 634 km, 82.5° (Epoch: 18 October)

Event Time Altitude Azimuth Distance (km) Brightness Sun altitude
Exits shadow 04:03:35 - 185° (S) 2,523 6.5 -17.0°
Reaches altitude 10° 04:04:56 10° 185° (S) 1,971 5.9 -16.7°
Maximum altitude 04:09:17 81° 99° (E) 625 3.6 -16.1°
Drops below altitude 10° 04:13:39 10° 11° (NNE) 1,971 6.5 -15.4°
Sets 04:15:52 0° 11° (N) 2,876 7.4 -15.0°
